START_TIME,STEP,MOV.,P11,t_acc.,P23,t_acc.,P27,t_acc.,A4,t_acc.
1979-07-23 09:00:22.660 ,0,0,0.,4.8,0.,4.8,0.,4.8,0.,4.8
1979-07-23 09:00:27.460 ,0,0,1.,4.8,1.,4.8,1.,4.8,0.,4.8
1979-07-23 09:00:32.260 ,0,0,1.,4.8,0.,4.8,0.,4.8,0.,4.8
1979-07-23 09:00:37.060 ,0,0,1.,4.8,0.,4.8,0.,4.8,0.,4.8
1979-07-23 09:00:41.860 ,0,0,0.,4.8,0.,4.8,1.,4.8,0.,4.8
1979-07-23 09:00:46.660 ,0,0,3.,4.8,0.,4.8,0.,4.8,0.,4.8
1979-07-23 09:00:51.460 ,0,0,0.,4.8,0.,4.8,0.,4.8,0.,4.8
1979-07-23 09:00:56.260 ,0,0,2.,4.8,0.,4.8,0.,4.8,0.,4.8
1979-07-23 09:01:01.060 ,0,0,0.,4.8,0.,4.8,0.,4.8,0.,4.8
1979-07-23 09:01:05.860 ,0,0,0.,4.8,0.,4.8,1.,4.8,0.,4.8
1979-07-23 09:01:10.660 ,0,0,0.,4.8,0.,4.8,2.,4.8,0.,4.8
1979-07-23 09:01:15.460 ,0,0,0.,4.8,0.,4.8,1.,4.8,0.,4.8
1979-07-23 09:01:20.260 ,0,0,1.,4.8,0.,4.8,0.,4.8,0.,4.8
1979-07-23 09:01:25.060 ,0,0,0.,4.8,0.,4.8,0.,4.8,0.,4.8
1979-07-23 09:01:29.860 ,0,0,0.,4.8,0.,4.8,0.,4.8,0.,4.8
1979-07-23 09:01:34.660 ,1,0,1.,4.8,0.,4.8,0.,4.8,0.,4.8
1979-07-23 09:01:39.460 ,1,0,1.,4.8,0.,4.8,0.,4.8,0.,4.8
1979-07-23 09:01:44.260 ,1,0,0.,4.8,0.,4.8,0.,4.8,0.,4.8
1979-07-23 09:01:49.060 ,1,0,0.,4.8,0.,4.8,0.,4.8,0.,4.8
1979-07-23 09:01:53.860 ,1,0,2.,4.8,0.,4.8,0.,4.8,0.,4.8
1979-07-23 09:01:58.660 ,1,0,1.,4.8,0.,4.8,0.,4.8,0.,4.8
1979-07-23 09:02:03.460 ,1,0,0.,4.8,0.,4.8,0.,4.8,0.,4.8
1979-07-23 09:02:08.260 ,1,0,0.,4.8,0.,4.8,0.,4.8,0.,4.8
1979-07-23 09:02:13.060 ,1,0,0.,4.8,0.,4.8,0.,4.8,0.,4.8
1979-07-23 09:02:17.860 ,1,0,1.,4.8,0.,4.8,1.,4.8,0.,4.8
1979-07-23 09:02:22.660 ,2,0,2.,4.8,1.,4.8,0.,4.8,0.,4.8
1979-07-23 09:02:27.460 ,2,0,1.,4.8,0.,4.8,0.,4.8,0.,4.8
1979-07-23 09:02:32.260 ,2,0,1.,4.8,0.,4.8,0.,4.8,0.,4.8
1979-07-23 09:02:37.060 ,2,0,0.,4.8,0.,4.8,0.,4.8,0.,4.8
1979-07-23 09:02:41.860 ,2,0,0.,4.8,0.,4.8,0.,4.8,0.,4.8
1979-07-23 09:02:46.660 ,2,0,0.,4.8,0.,4.8,0.,4.8,0.,4.8
1979-07-23 09:02:51.460 ,2,0,0.,4.8,0.,4.8,0.,4.8,0.,4.8
1979-07-23 09:02:56.260 ,2,0,0.,4.8,0.,4.8,0.,4.8,0.,4.8
1979-07-23 09:03:01.060 ,2,0,0.,4.8,0.,4.8,0.,4.8,0.,4.8
1979-07-23 09:03:05.860 ,2,0,0.,4.8,0.,4.8,0.,4.8,0.,4.8
1979-07-23 09:03:10.660 ,3,0,0.,4.8,0.,4.8,0.,4.8,0.,4.8
1979-07-23 09:03:15.460 ,3,0,1.,4.8,0.,4.8,0.,4.8,0.,4.8
1979-07-23 09:03:20.260 ,3,0,2.,4.8,0.,4.8,0.,4.8,0.,4.8
1979-07-23 09:03:25.060 ,3,0,1.,4.8,0.,4.8,0.,4.8,0.,4.8
1979-07-23 09:03:29.860 ,3,0,1.,4.8,0.,4.8,0.,4.8,0.,4.8
1979-07-23 09:03:34.660 ,3,0,2.,4.8,0.,4.8,0.,4.8,0.,4.8
1979-07-23 09:03:39.460 ,3,0,0.,4.8,0.,4.8,0.,4.8,0.,4.8
1979-07-23 09:03:44.260 ,3,0,0.,4.8,0.,4.8,0.,4.8,0.,4.8
1979-07-23 09:03:49.060 ,3,0,0.,4.8,0.,4.8,1.,4.8,0.,4.8
1979-07-23 09:03:53.860 ,3,0,0.,4.8,0.,4.8,0.,4.8,0.,4.8
1979-07-23 09:03:58.660 ,4,0,1.,4.8,0.,4.8,0.,4.8,0.,4.8
1979-07-23 09:04:03.460 ,4,0,0.,4.8,0.,4.8,0.,4.8,0.,4.8
1979-07-23 09:04:08.260 ,4,0,0.,4.8,0.,4.8,0.,4.8,0.,4.8
1979-07-23 09:04:13.060 ,4,0,0.,4.8,0.,4.8,0.,4.8,0.,4.8
1979-07-23 09:04:17.860 ,4,0,2.,4.8,0.,4.8,0.,4.8,0.,4.8
1979-07-23 09:04:22.660 ,4,0,0.,4.8,0.,4.8,0.,4.8,0.,4.8
1979-07-23 09:04:27.460 ,4,0,1.,4.8,0.,4.8,0.,4.8,0.,4.8
1979-07-23 09:04:32.260 ,4,0,0.,4.8,0.,4.8,0.,4.8,0.,4.8
1979-07-23 09:04:37.060 ,4,0,0.,4.8,0.,4.8,0.,4.8,0.,4.8
1979-07-23 09:04:41.860 ,4,0,0.,4.8,0.,4.8,0.,4.8,0.,4.8
1979-07-23 09:04:46.660 ,5,0,0.,4.8,0.,4.8,0.,4.8,0.,4.8
1979-07-23 09:04:51.460 ,5,0,0.,4.8,0.,4.8,0.,4.8,0.,4.8
1979-07-23 09:04:56.260 ,5,0,1.,4.8,0.,4.8,0.,4.8,0.,4.8
1979-07-23 09:05:01.060 ,5,0,1.,4.8,0.,4.8,0.,4.8,0.,4.8
1979-07-23 09:05:05.860 ,5,0,0.,4.8,0.,4.8,0.,4.8,0.,4.8
1979-07-23 09:05:10.660 ,5,0,0.,4.8,0.,4.8,0.,4.8,0.,4.8
1979-07-23 09:05:15.460 ,5,0,0.,4.8,0.,4.8,0.,4.8,0.,4.8
1979-07-23 09:05:20.260 ,5,0,1.,4.8,0.,4.8,0.,4.8,0.,4.8
1979-07-23 09:05:25.060 ,5,0,0.,4.8,0.,4.8,0.,4.8,0.,4.8
1979-07-23 09:05:29.860 ,5,0,0.,4.8,0.,4.8,0.,4.8,0.,4.8
1979-07-23 09:05:34.660 ,6,0,0.,4.8,0.,4.8,0.,4.8,0.,4.8
1979-07-23 09:05:39.460 ,6,0,1.,4.8,0.,4.8,0.,4.8,0.,4.8
1979-07-23 09:05:44.260 ,6,0,0.,4.8,0.,4.8,0.,4.8,0.,4.8
1979-07-23 09:05:49.060 ,6,0,0.,4.8,0.,4.8,0.,4.8,0.,4.8
1979-07-23 09:05:53.860 ,6,0,0.,4.8,0.,4.8,0.,4.8,0.,4.8
1979-07-23 09:05:58.660 ,6,0,0.,4.8,0.,4.8,0.,4.8,0.,4.8
1979-07-23 09:06:03.460 ,6,0,2.,4.8,0.,4.8,0.,4.8,0.,4.8
1979-07-23 09:06:08.260 ,6,0,1.,4.8,0.,4.8,1.,4.8,0.,4.8
1979-07-23 09:06:13.060 ,6,0,1.,4.8,0.,4.8,0.,4.8,0.,4.8
1979-07-23 09:06:17.860 ,6,0,0.,4.8,0.,4.8,0.,4.8,0.,4.8
1979-07-23 09:06:22.660 ,7,0,0.,4.8,0.,4.8,0.,4.8,0.,4.8
1979-07-23 09:06:27.460 ,7,0,0.,4.8,0.,4.8,0.,4.8,0.,4.8
1979-07-23 09:06:32.260 ,7,0,0.,4.8,0.,4.8,0.,4.8,0.,4.8
1979-07-23 09:06:37.060 ,7,0,0.,4.8,0.,4.8,0.,4.8,0.,4.8
1979-07-23 09:06:41.860 ,7,0,0.,4.8,0.,4.8,1.,4.8,0.,4.8
1979-07-23 09:06:46.660 ,7,0,0.,4.8,0.,4.8,0.,4.8,0.,4.8
1979-07-23 09:06:51.460 ,7,0,0.,4.8,0.,4.8,0.,4.8,0.,4.8
1979-07-23 09:06:56.260 ,7,0,0.,4.8,0.,4.8,2.,4.8,0.,4.8
1979-07-23 09:07:01.060 ,7,0,1.,4.8,0.,4.8,0.,4.8,0.,4.8
1979-07-23 09:07:05.860 ,7,0,0.,4.8,0.,4.8,0.,4.8,0.,4.8
1979-07-23 09:07:10.660 ,3,1,1.,4.8,0.,4.8,0.,4.8,0.,4.8
1979-07-23 09:07:15.460 ,3,1,0.,4.8,0.,4.8,0.,4.8,0.,4.8
1979-07-23 09:07:20.260 ,3,1,0.,4.8,0.,4.8,0.,4.8,0.,4.8
1979-07-23 09:07:25.060 ,3,1,0.,4.8,0.,4.8,0.,4.8,0.,4.8
1979-07-23 09:07:29.860 ,3,1,0.,4.8,0.,4.8,0.,4.8,0.,4.8
1979-07-23 09:07:34.660 ,0,1,0.,4.8,0.,4.8,0.,4.8,0.,4.8
1979-07-23 09:07:39.460 ,0,1,0.,4.8,0.,4.8,0.,4.8,0.,4.8
1979-07-23 09:07:44.260 ,0,1,0.,4.8,0.,4.8,0.,4.8,0.,4.8
1979-07-23 09:07:49.060 ,0,1,0.,4.8,0.,4.8,0.,4.8,0.,4.8
1979-07-23 09:07:53.860 ,0,1,1.,4.8,0.,4.8,0.,4.8,0.,4.8
1979-07-23 09:07:58.660 ,4,1,1.,4.8,0.,4.8,0.,4.8,0.,4.8
1979-07-23 09:08:03.460 ,4,1,1.,4.8,0.,4.8,0.,4.8,0.,4.8
1979-07-23 09:08:08.260 ,4,1,1.,4.8,0.,4.8,0.,4.8,0.,4.8
1979-07-23 09:08:13.060 ,4,1,0.,4.8,0.,4.8,0.,4.8,0.,4.8
1979-07-23 09:08:17.860 ,4,1,0.,4.8,0.,4.8,1.,4.8,0.,4.8
1979-07-23 09:08:22.660 ,7,1,1.,4.8,0.,4.8,0.,4.8,0.,4.8
1979-07-23 09:08:27.460 ,7,1,0.,4.8,0.,4.8,0.,4.8,0.,4.8
1979-07-23 09:08:32.260 ,7,1,1.,4.8,0.,4.8,0.,4.8,0.,4.8
1979-07-23 09:08:37.060 ,7,1,0.,4.8,0.,4.8,0.,4.8,0.,4.8
1979-07-23 09:08:41.860 ,7,1,1.,4.8,0.,4.8,0.,4.8,0.,4.8
1979-07-23 09:08:46.660 ,3,1,0.,4.8,0.,4.8,2.,4.8,0.,4.8
1979-07-23 09:08:51.460 ,3,1,1.,4.8,0.,4.8,0.,4.8,0.,4.8
1979-07-23 09:08:56.260 ,3,1,1.,4.8,0.,4.8,0.,4.8,0.,4.8
1979-07-23 09:09:01.060 ,3,1,0.,4.8,0.,4.8,0.,4.8,0.,4.8
1979-07-23 09:09:05.860 ,3,1,0.,4.8,0.,4.8,0.,4.8,0.,4.8
1979-07-23 09:09:10.660 ,0,1,0.,4.8,0.,4.8,0.,4.8,0.,4.8
1979-07-23 09:09:15.460 ,0,1,1.,4.8,0.,4.8,0.,4.8,0.,4.8
1979-07-23 09:09:20.260 ,0,1,0.,4.8,1.,4.8,0.,4.8,0.,4.8
1979-07-23 09:09:25.060 ,0,1,0.,4.8,0.,4.8,0.,4.8,0.,4.8
1979-07-23 09:09:29.860 ,0,1,1.,4.8,0.,4.8,0.,4.8,0.,4.8
1979-07-23 09:09:34.660 ,4,1,0.,4.8,0.,4.8,0.,4.8,0.,4.8
1979-07-23 09:09:39.460 ,4,1,1.,4.8,0.,4.8,0.,4.8,0.,4.8
1979-07-23 09:09:44.260 ,4,1,0.,4.8,0.,4.8,0.,4.8,0.,4.8
1979-07-23 09:09:49.060 ,4,1,0.,4.8,0.,4.8,0.,4.8,0.,4.8
1979-07-23 09:09:53.860 ,4,1,2.,4.8,0.,4.8,0.,4.8,0.,4.8
1979-07-23 09:09:58.660 ,7,1,0.,4.8,0.,4.8,0.,4.8,0.,4.8
1979-07-23 09:10:03.460 ,7,1,0.,4.8,0.,4.8,0.,4.8,0.,4.8
1979-07-23 09:10:08.260 ,7,1,1.,4.8,1.,4.8,0.,4.8,0.,4.8
1979-07-23 09:10:13.060 ,7,1,0.,4.8,0.,4.8,0.,4.8,0.,4.8
1979-07-23 09:10:17.860 ,7,1,1.,4.8,0.,4.8,0.,4.8,0.,4.8
1979-07-23 09:10:22.660 ,3,1,0.,4.8,0.,4.8,0.,4.8,0.,4.8
1979-07-23 09:10:27.460 ,3,1,0.,4.8,0.,4.8,0.,4.8,0.,4.8
1979-07-23 09:10:32.260 ,3,1,1.,4.8,0.,4.8,0.,4.8,0.,4.8
1979-07-23 09:10:37.060 ,3,1,0.,4.8,0.,4.8,0.,4.8,0.,4.8
1979-07-23 09:10:41.860 ,3,1,0.,4.8,0.,4.8,0.,4.8,0.,4.8
1979-07-23 09:10:46.660 ,0,1,1.,4.8,0.,4.8,0.,4.8,0.,4.8
1979-07-23 09:10:51.460 ,0,1,0.,4.8,0.,4.8,0.,4.8,0.,4.8
1979-07-23 09:10:56.260 ,0,1,2.,4.8,0.,4.8,0.,4.8,0.,4.8
1979-07-23 09:11:01.060 ,0,1,0.,4.8,0.,4.8,0.,4.8,0.,4.8
1979-07-23 09:11:05.860 ,0,1,0.,4.8,1.,4.8,0.,4.8,0.,4.8
1979-07-23 09:11:10.660 ,4,1,0.,4.8,0.,4.8,0.,4.8,0.,4.8
1979-07-23 09:11:15.460 ,4,1,0.,4.8,1.,4.8,0.,4.8,0.,4.8
1979-07-23 09:11:20.260 ,4,1,0.,4.8,0.,4.8,0.,4.8,0.,4.8
1979-07-23 09:11:25.060 ,4,1,0.,4.8,0.,4.8,0.,4.8,0.,4.8
1979-07-23 09:11:29.860 ,4,1,1.,4.8,0.,4.8,0.,4.8,0.,4.8
1979-07-23 09:11:34.660 ,7,1,1.,4.8,0.,4.8,1.,4.8,0.,4.8
1979-07-23 09:11:39.460 ,7,1,0.,4.8,0.,4.8,1.,4.8,0.,4.8
1979-07-23 09:11:44.260 ,7,1,0.,4.8,0.,4.8,0.,4.8,0.,4.8
1979-07-23 09:11:49.060 ,7,1,0.,4.8,0.,4.8,0.,4.8,0.,4.8
1979-07-23 09:11:53.860 ,7,1,0.,4.8,0.,4.8,0.,4.8,0.,4.8
1979-07-23 09:11:58.660 ,3,1,0.,4.8,0.,4.8,0.,4.8,0.,4.8
1979-07-23 09:12:03.460 ,3,1,0.,4.8,0.,4.8,0.,4.8,0.,4.8
1979-07-23 09:12:08.260 ,3,1,2.,4.8,0.,4.8,1.,4.8,0.,4.8
1979-07-23 09:12:13.060 ,3,1,2.,4.8,0.,4.8,0.,4.8,0.,4.8
1979-07-23 09:12:17.860 ,3,1,0.,4.8,0.,4.8,0.,4.8,0.,4.8
1979-07-23 09:12:22.660 ,0,1,0.,4.8,0.,4.8,0.,4.8,0.,4.8
1979-07-23 09:12:27.460 ,0,1,0.,4.8,0.,4.8,0.,4.8,0.,4.8
1979-07-23 09:12:32.260 ,0,1,1.,4.8,1.,4.8,0.,4.8,0.,4.8
1979-07-23 09:12:37.060 ,0,1,0.,4.8,0.,4.8,0.,4.8,0.,4.8
1979-07-23 09:12:41.860 ,0,1,2.,4.8,0.,4.8,0.,4.8,0.,4.8
1979-07-23 09:12:46.660 ,4,1,0.,4.8,0.,4.8,0.,4.8,0.,4.8
1979-07-23 09:12:51.460 ,4,1,0.,4.8,0.,4.8,0.,4.8,0.,4.8
1979-07-23 09:12:56.260 ,4,1,0.,4.8,0.,4.8,0.,4.8,0.,4.8
1979-07-23 09:13:01.060 ,4,1,1.,4.8,0.,4.8,1.,4.8,0.,4.8
1979-07-23 09:13:05.860 ,4,1,1.,4.8,0.,4.8,0.,4.8,0.,4.8
1979-07-23 09:13:10.660 ,7,1,0.,4.8,0.,4.8,0.,4.8,0.,4.8
1979-07-23 09:13:15.460 ,7,1,1.,4.8,1.,4.8,0.,4.8,0.,4.8
1979-07-23 09:13:20.260 ,7,1,0.,4.8,0.,4.8,0.,4.8,0.,4.8
1979-07-23 09:13:25.060 ,7,1,0.,4.8,0.,4.8,1.,4.8,0.,4.8
1979-07-23 09:13:29.860 ,7,1,0.,4.8,0.,4.8,0.,4.8,0.,4.8
1979-07-23 09:13:34.660 ,3,1,0.,4.8,0.,4.8,0.,4.8,0.,4.8
1979-07-23 09:13:39.460 ,3,1,1.,4.8,0.,4.8,0.,4.8,0.,4.8
1979-07-23 09:13:44.260 ,3,1,0.,4.8,0.,4.8,0.,4.8,0.,4.8
1979-07-23 09:13:49.060 ,3,1,2.,4.8,0.,4.8,0.,4.8,0.,4.8
1979-07-23 09:13:53.860 ,3,1,0.,4.8,0.,4.8,0.,4.8,0.,4.8
1979-07-23 09:13:58.660 ,0,1,1.,4.8,0.,4.8,0.,4.8,0.,4.8
1979-07-23 09:14:03.460 ,0,1,1.,4.8,0.,4.8,0.,4.8,0.,4.8
1979-07-23 09:14:08.260 ,0,1,0.,4.8,0.,4.8,0.,4.8,0.,4.8
1979-07-23 09:14:13.060 ,0,1,0.,4.8,0.,4.8,0.,4.8,0.,4.8
1979-07-23 09:14:17.860 ,0,1,1.,4.8,0.,4.8,0.,4.8,0.,4.8
1979-07-23 09:14:22.660 ,4,1,2.,4.8,0.,4.8,0.,4.8,0.,4.8
1979-07-23 09:14:27.460 ,4,1,1.,4.8,0.,4.8,0.,4.8,0.,4.8
1979-07-23 09:14:32.260 ,4,1,1.,4.8,0.,4.8,0.,4.8,0.,4.8
1979-07-23 09:14:37.060 ,4,1,1.,4.8,0.,4.8,0.,4.8,0.,4.8
1979-07-23 09:14:41.860 ,4,1,0.,4.8,0.,4.8,1.,4.8,0.,4.8
1979-07-23 09:14:46.660 ,7,1,0.,4.8,0.,4.8,0.,4.8,0.,4.8
1979-07-23 09:14:51.460 ,7,1,0.,4.8,0.,4.8,0.,4.8,0.,4.8
1979-07-23 09:14:56.260 ,7,1,0.,4.8,0.,4.8,0.,4.8,0.,4.8
1979-07-23 09:15:01.060 ,7,1,1.,4.8,0.,4.8,0.,4.8,0.,4.8
1979-07-23 09:15:05.860 ,7,1,0.,4.8,0.,4.8,1.,4.8,0.,4.8
1979-07-23 09:15:10.660 ,3,1,0.,4.8,0.,4.8,0.,4.8,0.,4.8
1979-07-23 09:15:15.460 ,3,1,0.,4.8,0.,4.8,0.,4.8,0.,4.8
1979-07-23 09:15:20.260 ,3,1,1.,4.8,0.,4.8,0.,4.8,0.,4.8
1979-07-23 09:15:25.060 ,3,1,0.,4.8,0.,4.8,0.,4.8,0.,4.8
1979-07-23 09:15:29.860 ,3,1,0.,4.8,0.,4.8,0.,4.8,0.,4.8
1979-07-23 09:15:34.660 ,0,0,1.,4.8,0.,4.8,0.,4.8,0.,4.8
1979-07-23 09:15:39.460 ,0,0,0.,4.8,0.,4.8,0.,4.8,0.,4.8
1979-07-23 09:15:44.260 ,0,0,0.,4.8,0.,4.8,0.,4.8,0.,4.8
1979-07-23 09:15:49.060 ,0,0,0.,4.8,0.,4.8,1.,4.8,0.,4.8
1979-07-23 09:15:53.860 ,0,0,1.,4.8,0.,4.8,0.,4.8,0.,4.8
1979-07-23 09:15:58.660 ,0,0,1.,4.8,0.,4.8,0.,4.8,0.,4.8
1979-07-23 09:16:03.460 ,0,0,0.,4.8,0.,4.8,0.,4.8,0.,4.8
1979-07-23 09:16:08.260 ,0,0,2.,4.8,0.,4.8,0.,4.8,0.,4.8
1979-07-23 09:16:13.060 ,0,0,0.,4.8,0.,4.8,0.,4.8,0.,4.8
1979-07-23 09:16:17.860 ,0,0,0.,4.8,0.,4.8,0.,4.8,0.,4.8
1979-07-23 09:16:22.660 ,7,1,1.,4.8,0.,4.8,0.,4.8,0.,4.8
1979-07-23 09:16:27.460 ,7,1,0.,4.8,0.,4.8,0.,4.8,0.,4.8
1979-07-23 09:16:32.260 ,7,1,1.,4.8,0.,4.8,0.,4.8,0.,4.8
1979-07-23 09:16:37.060 ,7,1,0.,4.8,0.,4.8,0.,4.8,0.,4.8
1979-07-23 09:16:41.860 ,7,1,0.,4.8,0.,4.8,0.,4.8,0.,4.8
1979-07-23 09:16:46.660 ,3,1,0.,4.8,0.,4.8,0.,4.8,0.,4.8
1979-07-23 09:16:51.460 ,3,1,4.,4.8,0.,4.8,0.,4.8,0.,4.8
1979-07-23 09:16:56.260 ,3,1,0.,4.8,0.,4.8,0.,4.8,0.,4.8
1979-07-23 09:17:01.060 ,3,1,0.,4.8,0.,4.8,1.,4.8,0.,4.8
1979-07-23 09:17:05.860 ,3,1,0.,4.8,0.,4.8,0.,4.8,0.,4.8
1979-07-23 09:17:10.660 ,0,1,0.,4.8,0.,4.8,0.,4.8,0.,4.8
1979-07-23 09:17:15.460 ,0,1,0.,4.8,0.,4.8,0.,4.8,0.,4.8
1979-07-23 09:17:20.260 ,0,1,0.,4.8,0.,4.8,0.,4.8,1.,4.8
1979-07-23 09:17:25.060 ,0,1,0.,4.8,0.,4.8,0.,4.8,0.,4.8
1979-07-23 09:17:29.860 ,0,1,1.,4.8,0.,4.8,0.,4.8,0.,4.8
1979-07-23 09:17:34.660 ,0,0,2.,4.8,0.,4.8,0.,4.8,0.,4.8
1979-07-23 09:17:39.460 ,0,0,0.,4.8,0.,4.8,0.,4.8,0.,4.8
1979-07-23 09:17:44.260 ,0,0,0.,4.8,0.,4.8,0.,4.8,0.,4.8
1979-07-23 09:17:49.060 ,0,0,1.,4.8,0.,4.8,0.,4.8,0.,4.8
1979-07-23 09:17:53.860 ,0,0,0.,4.8,0.,4.8,0.,4.8,0.,4.8
1979-07-23 09:17:58.660 ,0,0,0.,4.8,0.,4.8,0.,4.8,0.,4.8
1979-07-23 09:18:03.460 ,0,0,0.,4.8,0.,4.8,0.,4.8,0.,4.8
1979-07-23 09:18:08.260 ,0,0,0.,4.8,0.,4.8,0.,4.8,0.,4.8
1979-07-23 09:18:13.060 ,0,0,0.,4.8,0.,4.8,0.,4.8,0.,4.8
1979-07-23 09:18:17.860 ,0,0,0.,4.8,0.,4.8,0.,4.8,0.,4.8
1979-07-23 09:18:22.660 ,5,0,0.,4.8,0.,4.8,0.,4.8,0.,4.8
1979-07-23 09:18:27.460 ,5,0,0.,4.8,0.,4.8,0.,4.8,0.,4.8
1979-07-23 09:18:32.260 ,5,0,0.,4.8,0.,4.8,0.,4.8,0.,4.8
1979-07-23 09:18:37.060 ,5,0,0.,4.8,0.,4.8,0.,4.8,0.,4.8
1979-07-23 09:18:41.860 ,5,0,1.,4.8,0.,4.8,0.,4.8,0.,4.8
1979-07-23 09:18:46.660 ,5,0,0.,4.8,0.,4.8,0.,4.8,0.,4.8
1979-07-23 09:18:51.460 ,5,0,0.,4.8,0.,4.8,0.,4.8,0.,4.8
1979-07-23 09:18:56.260 ,5,0,0.,4.8,0.,4.8,0.,4.8,0.,4.8
1979-07-23 09:19:01.060 ,5,0,1.,4.8,0.,4.8,0.,4.8,0.,4.8
1979-07-23 09:19:05.860 ,5,0,0.,4.8,0.,4.8,0.,4.8,0.,4.8
1979-07-23 09:19:10.660 ,4,0,1.,4.8,0.,4.8,1.,4.8,0.,4.8
1979-07-23 09:19:15.460 ,4,0,0.,4.8,0.,4.8,0.,4.8,0.,4.8
1979-07-23 09:19:20.260 ,4,0,0.,4.8,0.,4.8,0.,4.8,0.,4.8
1979-07-23 09:19:25.060 ,4,0,2.,4.8,0.,4.8,0.,4.8,0.,4.8
1979-07-23 09:19:29.860 ,4,0,1.,4.8,0.,4.8,0.,4.8,0.,4.8
1979-07-23 09:19:34.660 ,4,0,0.,4.8,0.,4.8,0.,4.8,0.,4.8
1979-07-23 09:19:39.460 ,4,0,1.,4.8,1.,4.8,0.,4.8,0.,4.8
1979-07-23 09:19:44.260 ,4,0,1.,4.8,0.,4.8,1.,4.8,0.,4.8
1979-07-23 09:19:49.060 ,4,0,2.,4.8,0.,4.8,0.,4.8,0.,4.8
1979-07-23 09:19:53.860 ,4,0,0.,4.8,0.,4.8,0.,4.8,0.,4.8
1979-07-23 09:19:58.660 ,3,0,0.,4.8,0.,4.8,0.,4.8,0.,4.8
1979-07-23 09:20:03.460 ,3,0,1.,4.8,1.,4.8,0.,4.8,0.,4.8
1979-07-23 09:20:08.260 ,3,0,0.,4.8,0.,4.8,0.,4.8,0.,4.8
1979-07-23 09:20:13.060 ,3,0,1.,4.8,0.,4.8,0.,4.8,0.,4.8
1979-07-23 09:20:17.860 ,3,0,0.,4.8,0.,4.8,0.,4.8,0.,4.8
1979-07-23 09:20:22.660 ,3,0,0.,4.8,0.,4.8,0.,4.8,0.,4.8
1979-07-23 09:20:27.460 ,3,0,2.,4.8,0.,4.8,0.,4.8,0.,4.8
1979-07-23 09:20:32.260 ,3,0,2.,4.8,0.,4.8,0.,4.8,0.,4.8
1979-07-23 09:20:37.060 ,3,0,0.,4.8,0.,4.8,1.,4.8,0.,4.8
1979-07-23 09:20:41.860 ,3,0,0.,4.8,0.,4.8,0.,4.8,0.,4.8
1979-07-23 09:20:46.660 ,2,0,1.,4.8,0.,4.8,0.,4.8,0.,4.8
1979-07-23 09:20:51.460 ,2,0,0.,4.8,0.,4.8,0.,4.8,0.,4.8
1979-07-23 09:20:56.260 ,2,0,1.,4.8,0.,4.8,0.,4.8,0.,4.8
1979-07-23 09:21:01.060 ,2,0,1.,4.8,0.,4.8,0.,4.8,0.,4.8
1979-07-23 09:21:05.860 ,2,0,0.,4.8,0.,4.8,0.,4.8,0.,4.8
1979-07-23 09:21:10.660 ,2,0,0.,4.8,0.,4.8,0.,4.8,0.,4.8
1979-07-23 09:21:15.460 ,2,0,2.,4.8,0.,4.8,0.,4.8,0.,4.8
1979-07-23 09:21:20.260 ,2,0,0.,4.8,0.,4.8,0.,4.8,0.,4.8
1979-07-23 09:21:25.060 ,2,0,1.,4.8,0.,4.8,0.,4.8,0.,4.8
1979-07-23 09:21:29.860 ,2,0,0.,4.8,0.,4.8,0.,4.8,0.,4.8
1979-07-23 09:21:34.660 ,1,0,0.,4.8,0.,4.8,0.,4.8,0.,4.8
1979-07-23 09:21:39.460 ,1,0,0.,4.8,0.,4.8,0.,4.8,0.,4.8
1979-07-23 09:21:44.260 ,1,0,0.,4.8,0.,4.8,0.,4.8,0.,4.8
1979-07-23 09:21:49.060 ,1,0,1.,4.8,0.,4.8,0.,4.8,0.,4.8
1979-07-23 09:21:53.860 ,1,0,0.,4.8,0.,4.8,0.,4.8,0.,4.8
1979-07-23 09:21:58.660 ,1,0,0.,4.8,0.,4.8,0.,4.8,0.,4.8
1979-07-23 09:22:03.460 ,1,0,2.,4.8,0.,4.8,1.,4.8,0.,4.8
1979-07-23 09:22:08.260 ,1,0,0.,4.8,0.,4.8,0.,4.8,0.,4.8
1979-07-23 09:22:13.060 ,1,0,1.,4.8,0.,4.8,0.,4.8,0.,4.8
1979-07-23 09:22:17.860 ,1,0,1.,4.8,0.,4.8,0.,4.8,0.,4.8
1979-07-23 09:22:22.660 ,0,0,0.,4.8,0.,4.8,0.,4.8,0.,4.8
1979-07-23 09:22:27.460 ,0,0,1.,4.8,0.,4.8,0.,4.8,0.,4.8
1979-07-23 09:22:32.260 ,0,0,1.,4.8,0.,4.8,0.,4.8,0.,4.8
1979-07-23 09:22:37.060 ,0,0,1.,4.8,0.,4.8,0.,4.8,0.,4.8
1979-07-23 09:22:41.860 ,0,0,2.,4.8,0.,4.8,0.,4.8,0.,4.8
1979-07-23 09:22:46.660 ,0,0,2.,4.8,0.,4.8,0.,4.8,0.,4.8
1979-07-23 09:22:51.460 ,0,0,0.,4.8,0.,4.8,0.,4.8,0.,4.8
1979-07-23 09:22:56.260 ,0,0,0.,4.8,0.,4.8,0.,4.8,0.,4.8
1979-07-23 09:23:01.060 ,0,0,1.,4.8,0.,4.8,0.,4.8,0.,4.8
1979-07-23 09:23:05.860 ,0,0,0.,4.8,0.,4.8,0.,4.8,0.,4.8
1979-07-23 09:23:10.660 ,0,0,0.,4.8,0.,4.8,0.,4.8,0.,4.8
1979-07-23 09:23:15.460 ,0,0,1.,4.8,0.,4.8,1.,4.8,0.,4.8
1979-07-23 09:23:20.260 ,0,0,0.,4.8,0.,4.8,0.,4.8,0.,4.8
1979-07-23 09:23:25.060 ,0,0,0.,4.8,0.,4.8,0.,4.8,0.,4.8
1979-07-23 09:23:29.860 ,0,0,0.,4.8,0.,4.8,0.,4.8,0.,4.8
1979-07-23 09:23:34.660 ,0,0,2.,4.8,0.,4.8,1.,4.8,0.,4.8
1979-07-23 09:23:39.460 ,0,0,0.,4.8,0.,4.8,1.,4.8,0.,4.8
1979-07-23 09:23:44.260 ,0,0,1.,4.8,0.,4.8,2.,4.8,0.,4.8
1979-07-23 09:23:49.060 ,0,0,0.,4.8,0.,4.8,0.,4.8,0.,4.8
1979-07-23 09:23:53.860 ,0,0,0.,4.8,0.,4.8,0.,4.8,0.,4.8
1979-07-23 09:23:58.660 ,1,0,1.,4.8,1.,4.8,0.,4.8,0.,4.8
1979-07-23 09:24:03.460 ,1,0,0.,4.8,0.,4.8,0.,4.8,0.,4.8
1979-07-23 09:24:08.260 ,1,0,0.,4.8,0.,4.8,0.,4.8,0.,4.8
1979-07-23 09:24:13.060 ,1,0,1.,4.8,0.,4.8,2.,4.8,0.,4.8
1979-07-23 09:24:17.860 ,1,0,0.,4.8,0.,4.8,1.,4.8,0.,4.8
1979-07-23 09:24:22.660 ,1,0,0.,4.8,0.,4.8,0.,4.8,0.,4.8
1979-07-23 09:24:27.460 ,1,0,0.,4.8,0.,4.8,0.,4.8,0.,4.8
1979-07-23 09:24:32.260 ,1,0,0.,4.8,0.,4.8,0.,4.8,0.,4.8
1979-07-23 09:24:37.060 ,1,0,0.,4.8,0.,4.8,0.,4.8,0.,4.8
1979-07-23 09:24:41.860 ,1,0,0.,4.8,0.,4.8,1.,4.8,0.,4.8
1979-07-23 09:24:46.660 ,2,0,1.,4.8,0.,4.8,0.,4.8,0.,4.8
1979-07-23 09:24:51.460 ,2,0,0.,4.8,0.,4.8,0.,4.8,0.,4.8
1979-07-23 09:24:56.260 ,2,0,0.,4.8,0.,4.8,0.,4.8,0.,4.8
1979-07-23 09:25:01.060 ,2,0,0.,4.8,0.,4.8,0.,4.8,0.,4.8
1979-07-23 09:25:05.860 ,2,0,0.,4.8,0.,4.8,0.,4.8,0.,4.8
1979-07-23 09:25:10.660 ,2,0,1.,4.8,0.,4.8,0.,4.8,0.,4.8
1979-07-23 09:25:15.460 ,2,0,0.,4.8,0.,4.8,0.,4.8,0.,4.8
1979-07-23 09:25:20.260 ,2,0,0.,4.8,0.,4.8,0.,4.8,0.,4.8
1979-07-23 09:25:25.060 ,2,0,3.,4.8,0.,4.8,0.,4.8,0.,4.8
1979-07-23 09:25:29.860 ,2,0,0.,4.8,0.,4.8,0.,4.8,0.,4.8
1979-07-23 09:25:34.660 ,3,0,0.,4.8,0.,4.8,0.,4.8,0.,4.8
1979-07-23 09:25:39.460 ,3,0,1.,4.8,0.,4.8,0.,4.8,0.,4.8
1979-07-23 09:25:44.260 ,3,0,1.,4.8,0.,4.8,0.,4.8,0.,4.8
1979-07-23 09:25:49.060 ,3,0,0.,4.8,1.,4.8,0.,4.8,0.,4.8
1979-07-23 09:25:53.860 ,3,0,3.,4.8,0.,4.8,0.,4.8,0.,4.8
1979-07-23 09:25:58.660 ,3,0,0.,4.8,0.,4.8,0.,4.8,0.,4.8
1979-07-23 09:26:03.460 ,3,0,0.,4.8,0.,4.8,0.,4.8,0.,4.8
1979-07-23 09:26:08.260 ,3,0,0.,4.8,0.,4.8,0.,4.8,0.,4.8
1979-07-23 09:26:13.060 ,3,0,0.,4.8,0.,4.8,0.,4.8,0.,4.8
1979-07-23 09:26:17.860 ,3,0,1.,4.8,0.,4.8,0.,4.8,0.,4.8
1979-07-23 09:26:22.660 ,4,0,1.,4.8,0.,4.8,0.,4.8,0.,4.8
1979-07-23 09:26:27.460 ,4,0,0.,4.8,0.,4.8,1.,4.8,0.,4.8
1979-07-23 09:26:32.260 ,4,0,0.,4.8,0.,4.8,1.,4.8,0.,4.8
1979-07-23 09:26:37.060 ,4,0,0.,4.8,0.,4.8,0.,4.8,0.,4.8
1979-07-23 09:26:41.860 ,4,0,1.,4.8,0.,4.8,0.,4.8,0.,4.8
1979-07-23 09:26:46.660 ,4,0,0.,4.8,1.,4.8,0.,4.8,0.,4.8
1979-07-23 09:26:51.460 ,4,0,1.,4.8,0.,4.8,0.,4.8,0.,4.8
1979-07-23 09:26:56.260 ,4,0,0.,4.8,0.,4.8,0.,4.8,0.,4.8
1979-07-23 09:27:01.060 ,4,0,0.,4.8,0.,4.8,0.,4.8,0.,4.8
1979-07-23 09:27:05.860 ,4,0,0.,4.8,0.,4.8,0.,4.8,0.,4.8
1979-07-23 09:27:10.660 ,5,0,1.,4.8,0.,4.8,0.,4.8,0.,4.8
1979-07-23 09:27:15.460 ,5,0,0.,4.8,0.,4.8,0.,4.8,0.,4.8
1979-07-23 09:27:20.260 ,5,0,2.,4.8,0.,4.8,0.,4.8,0.,4.8
1979-07-23 09:27:25.060 ,5,0,1.,4.8,0.,4.8,0.,4.8,0.,4.8
1979-07-23 09:27:29.860 ,5,0,0.,4.8,0.,4.8,0.,4.8,0.,4.8
1979-07-23 09:27:34.660 ,5,0,0.,4.8,0.,4.8,0.,4.8,0.,4.8
1979-07-23 09:27:39.460 ,5,0,1.,4.8,0.,4.8,0.,4.8,0.,4.8
1979-07-23 09:27:44.260 ,5,0,1.,4.8,0.,4.8,0.,4.8,0.,4.8
1979-07-23 09:27:49.060 ,5,0,1.,4.8,0.,4.8,0.,4.8,0.,4.8
1979-07-23 09:27:53.860 ,5,0,1.,4.8,0.,4.8,0.,4.8,0.,4.8
1979-07-23 09:27:58.660 ,6,0,1.,4.8,0.,4.8,1.,4.8,0.,4.8
1979-07-23 09:28:03.460 ,6,0,0.,4.8,0.,4.8,0.,4.8,0.,4.8
1979-07-23 09:28:08.260 ,6,0,2.,4.8,0.,4.8,0.,4.8,0.,4.8
1979-07-23 09:28:13.060 ,6,0,0.,4.8,0.,4.8,0.,4.8,0.,4.8
1979-07-23 09:28:17.860 ,6,0,0.,4.8,0.,4.8,0.,4.8,0.,4.8
1979-07-23 09:28:22.660 ,6,0,1.,4.8,0.,4.8,1.,4.8,0.,4.8
1979-07-23 09:28:27.460 ,6,0,0.,4.8,0.,4.8,1.,4.8,0.,4.8
1979-07-23 09:28:32.260 ,6,0,0.,4.8,0.,4.8,0.,4.8,0.,4.8
1979-07-23 09:28:37.060 ,6,0,1.,4.8,0.,4.8,0.,4.8,0.,4.8
1979-07-23 09:28:41.860 ,6,0,0.,4.8,0.,4.8,0.,4.8,0.,4.8
1979-07-23 09:28:46.660 ,7,0,1.,4.8,0.,4.8,0.,4.8,0.,4.8
1979-07-23 09:28:51.460 ,7,0,0.,4.8,0.,4.8,0.,4.8,0.,4.8
1979-07-23 09:28:56.260 ,7,0,0.,4.8,0.,4.8,0.,4.8,0.,4.8
1979-07-23 09:29:01.060 ,7,0,0.,4.8,0.,4.8,0.,4.8,0.,4.8
1979-07-23 09:29:05.860 ,7,0,0.,4.8,0.,4.8,0.,4.8,0.,4.8
1979-07-23 09:29:10.660 ,7,0,0.,4.8,0.,4.8,0.,4.8,0.,4.8
1979-07-23 09:29:15.460 ,7,0,0.,4.8,0.,4.8,1.,4.8,0.,4.8
1979-07-23 09:29:20.260 ,7,0,1.,4.8,0.,4.8,0.,4.8,0.,4.8
1979-07-23 09:29:25.060 ,7,0,0.,4.8,0.,4.8,0.,4.8,0.,4.8
1979-07-23 09:29:29.860 ,7,0,0.,4.8,0.,4.8,0.,4.8,0.,4.8
1979-07-23 09:29:34.660 ,7,0,1.,4.8,0.,4.8,0.,4.8,0.,4.8
1979-07-23 09:29:39.460 ,7,0,2.,4.8,0.,4.8,0.,4.8,0.,4.8
1979-07-23 09:29:44.260 ,7,0,1.,4.8,0.,4.8,0.,4.8,0.,4.8
1979-07-23 09:29:49.060 ,7,0,1.,4.8,0.,4.8,0.,4.8,0.,4.8
1979-07-23 09:29:53.860 ,7,0,1.,4.8,0.,4.8,1.,4.8,0.,4.8
1979-07-23 09:29:58.660 ,7,0,1.,4.8,0.,4.8,1.,4.8,0.,4.8
1979-07-23 09:30:03.460 ,7,0,0.,4.8,0.,4.8,2.,4.8,0.,4.8
1979-07-23 09:30:08.260 ,7,0,0.,4.8,0.,4.8,0.,4.8,0.,4.8
1979-07-23 09:30:13.060 ,7,0,0.,4.8,0.,4.8,0.,4.8,0.,4.8
1979-07-23 09:30:17.860 ,7,0,1.,4.8,0.,4.8,0.,4.8,0.,4.8
1979-07-23 09:30:22.660 ,6,0,0.,4.8,0.,4.8,1.,4.8,0.,4.8
1979-07-23 09:30:27.460 ,6,0,0.,4.8,0.,4.8,0.,4.8,0.,4.8
1979-07-23 09:30:32.260 ,6,0,1.,4.8,0.,4.8,0.,4.8,0.,4.8
1979-07-23 09:30:37.060 ,6,0,0.,4.8,0.,4.8,0.,4.8,0.,4.8
1979-07-23 09:30:41.860 ,6,0,1.,4.8,0.,4.8,0.,4.8,0.,4.8
1979-07-23 09:30:46.660 ,6,0,2.,4.8,0.,4.8,0.,4.8,0.,4.8
1979-07-23 09:30:51.460 ,6,0,3.,4.8,1.,4.8,0.,4.8,0.,4.8
1979-07-23 09:30:56.260 ,6,0,2.,4.8,1.,4.8,0.,4.8,0.,4.8
1979-07-23 09:31:01.060 ,6,0,0.,4.8,0.,4.8,0.,4.8,0.,4.8
1979-07-23 09:31:05.860 ,6,0,1.,4.8,0.,4.8,0.,4.8,0.,4.8
1979-07-23 09:31:58.660 ,0,0,0.,4.8,0.,4.8,0.,4.8,0.,4.8
1979-07-23 09:32:03.460 ,0,0,0.,4.8,0.,4.8,0.,4.8,0.,4.8
1979-07-23 09:32:08.260 ,0,0,1.,4.8,0.,4.8,0.,4.8,0.,4.8
1979-07-23 09:32:13.060 ,0,0,0.,4.8,1.,4.8,0.,4.8,0.,4.8
1979-07-23 09:32:17.860 ,0,0,0.,4.8,0.,4.8,0.,4.8,0.,4.8
1979-07-23 09:32:22.660 ,0,0,0.,4.8,0.,4.8,0.,4.8,0.,4.8
1979-07-23 09:32:27.460 ,0,0,1.,4.8,1.,4.8,0.,4.8,0.,4.8
1979-07-23 09:32:32.260 ,0,0,0.,4.8,0.,4.8,1.,4.8,0.,4.8
1979-07-23 09:32:37.060 ,0,0,0.,4.8,0.,4.8,0.,4.8,0.,4.8
1979-07-23 09:32:41.860 ,0,0,0.,4.8,0.,4.8,0.,4.8,0.,4.8
1979-07-23 09:32:46.660 ,3,0,0.,4.8,1.,4.8,0.,4.8,0.,4.8
1979-07-23 09:32:51.460 ,3,0,1.,4.8,0.,4.8,0.,4.8,0.,4.8
1979-07-23 09:32:56.260 ,3,0,1.,4.8,0.,4.8,0.,4.8,0.,4.8
1979-07-23 09:33:01.060 ,3,0,0.,4.8,0.,4.8,0.,4.8,0.,4.8
1979-07-23 09:33:05.860 ,3,0,0.,4.8,0.,4.8,0.,4.8,0.,4.8
1979-07-23 09:33:10.660 ,3,0,0.,4.8,0.,4.8,0.,4.8,0.,4.8
1979-07-23 09:33:15.460 ,3,0,0.,4.8,0.,4.8,0.,4.8,0.,4.8
1979-07-23 09:33:20.260 ,3,0,0.,4.8,0.,4.8,0.,4.8,1.,4.8
1979-07-23 09:33:25.060 ,3,0,1.,4.8,0.,4.8,0.,4.8,0.,4.8
1979-07-23 09:33:29.860 ,3,0,0.,4.8,0.,4.8,0.,4.8,0.,4.8
1979-07-23 09:33:34.660 ,2,0,0.,4.8,0.,4.8,0.,4.8,0.,4.8
1979-07-23 09:33:39.460 ,2,0,0.,4.8,0.,4.8,0.,4.8,0.,4.8
1979-07-23 09:33:44.260 ,2,0,0.,4.8,1.,4.8,0.,4.8,0.,4.8
1979-07-23 09:33:49.060 ,2,0,1.,4.8,0.,4.8,0.,4.8,0.,4.8
1979-07-23 09:33:53.860 ,2,0,0.,4.8,0.,4.8,0.,4.8,0.,4.8
1979-07-23 09:33:58.660 ,2,0,0.,4.8,0.,4.8,0.,4.8,0.,4.8
1979-07-23 09:34:03.460 ,2,0,1.,4.8,0.,4.8,0.,4.8,0.,4.8